| time (UTC) | temp C | wind direction | speed KPH | gust KPH | rain 1hr cm | rain 24hr cm | rain mn cm | humidity % | barometer mb |
| 20260831072920 | 23 | 160 | 0.0 | 3.2 | 0.00 | 0.00 | 0.00 | 97 | 1017.5 |
| 20260831072420 | 23 | 160 | 0.0 | 4.8 | 0.00 | 0.00 | 0.00 | 97 | 1017.4 |
| 20260831072157 | 23 | 160 | 1.6 | 4.8 | 0.00 | 0.00 | 0.00 | 97 | 1017.4 |
| 20260831071919 | 23 | 148 | 1.6 | 3.2 | 0.00 | 0.00 | 0.00 | 97 | 1017.4 |
| 20260831071420 | 23 | 147 | 0.0 | 1.6 | 0.00 | 0.00 | 0.00 | 96 | 1017.4 |
| 20260831071155 | 23 | 150 | 0.0 | 1.6 | 0.00 | 0.00 | 0.00 | 96 | 1017.5 |
| 20260831070919 | 23 | 151 | 1.6 | 3.2 | 0.00 | 0.00 | 0.00 | 96 | 1017.5 |
| 20260831070419 | 23 | 154 | 0.0 | 4.8 | 0.00 | 0.00 | 0.00 | 96 | 1017.5 |
| 20260831070157 | 23 | 158 | 0.0 | 0.0 | 0.00 | 0.00 | 0.00 | 96 | 1017.5 |
| 20260831065920 | 23 | 179 | 1.6 | 1.6 | 0.00 | 0.00 | 0.00 | 96 | 1017.5 |
| 20260831065420 | 23 | 143 | 0.0 | 6.4 | 0.00 | 0.00 | 0.00 | 95 | 1017.5 |
| 20260831065157 | 23 | 138 | 3.2 | 3.2 | 0.00 | 0.00 | 0.00 | 95 | 1017.5 |
| 20260831064919 | 23 | 147 | 3.2 | 4.8 | 0.00 | 0.00 | 0.00 | 95 | 1017.5 |
| 20260831064419 | 23 | 143 | 1.6 | 1.6 | 0.00 | 0.00 | 0.00 | 94 | 1017.5 |
| 20260831064155 | 23 | 175 | 1.6 | 3.2 | 0.00 | 0.00 | 0.00 | 94 | 1017.5 |
| 20260831063919 | 23 | 124 | 0.0 | 3.2 | 0.00 | 0.00 | 0.00 | 94 | 1017.5 |
| 20260831063420 | 23 | 144 | 0.0 | 4.8 | 0.00 | 0.00 | 0.00 | 94 | 1017.5 |
| 20260831063156 | 23 | 130 | 1.6 | 3.2 | 0.00 | 0.00 | 0.00 | 94 | 1017.5 |
| 20260831062919 | 23 | 106 | 1.6 | 3.2 | 0.00 | 0.00 | 0.00 | 94 | 1017.5 |
| 20260831062420 | 23 | 123 | 1.6 | 4.8 | 0.00 | 0.00 | 0.00 | 93 | 1017.5 |
| 20260831062157 | 23 | 143 | 3.2 | 3.2 | 0.00 | 0.00 | 0.00 | 93 | 1017.5 |
| 20260831061919 | 23 | 162 | 0.0 | 4.8 | 0.00 | 0.00 | 0.00 | 93 | 1017.5 |
| 20260831061420 | 24 | 119 | 0.0 | 0.0 | 0.00 | 0.00 | 0.00 | 93 | 1017.5 |
| 20260831061157 | 24 | 141 | 0.0 | 0.0 | 0.00 | 0.00 | 0.00 | 93 | 1017.7 |
| 20260831060920 | 24 | 133 | 4.8 | 4.8 | 0.00 | 0.00 | 0.00 | 93 | 1017.7 |
| 20260831060419 | 24 | 127 | 1.6 | 1.6 | 0.00 | 0.00 | 0.00 | 92 | 1017.7 |
| 20260831060155 | 24 | 124 | 3.2 | 3.2 | 0.00 | 0.00 | 0.00 | 92 | 1017.7 |
| 20260831055920 | 24 | 128 | 3.2 | 3.2 | 0.00 | 0.00 | 0.00 | 92 | 1017.7 |
| 20260831055419 | 24 | 128 | 0.0 | 3.2 | 0.00 | 0.00 | 0.00 | 92 | 1017.6 |
| 20260831055156 | 24 | 117 | 1.6 | 3.2 | 0.00 | 0.00 | 0.00 | 92 | 1017.6 |
| 20260831054919 | 24 | 143 | 0.0 | 1.6 | 0.00 | 0.00 | 0.00 | 92 | 1017.6 |
| 20260831054420 | 24 | 157 | 3.2 | 4.8 | 0.00 | 0.00 | 0.00 | 92 | 1017.6 |
| 20260831054158 | 24 | 110 | 1.6 | 3.2 | 0.00 | 0.00 | 0.00 | 92 | 1017.6 |
| 20260831053920 | 24 | 85 | 3.2 | 3.2 | 0.00 | 0.00 | 0.00 | 91 | 1017.6 |
| 20260831053419 | 24 | 131 | 3.2 | 3.2 | 0.00 | 0.00 | 0.00 | 91 | 1017.6 |
| 20260831053156 | 24 | 109 | 0.0 | 4.8 | 0.00 | 0.00 | 0.00 | 91 | 1017.6 |
| 20260831052919 | 24 | 123 | 3.2 | 4.8 | 0.00 | 0.00 | 0.00 | 91 | 1017.6 |
| 20260831052420 | 24 | 127 | 3.2 | 3.2 | 0.00 | 0.00 | 0.00 | 91 | 1017.5 |
| 20260831052155 | 24 | 134 | 4.8 | 4.8 | 0.00 | 0.00 | 0.00 | 91 | 1017.5 |
| 20260831051919 | 24 | 138 | 1.6 | 4.8 | 0.00 | 0.00 | 0.00 | 91 | 1017.5 |
| 20260831051419 | 24 | 114 | 3.2 | 4.8 | 0.00 | 0.00 | 0.00 | 91 | 1017.5 |
| 20260831051157 | 25 | 124 | 1.6 | 4.8 | 0.00 | 0.00 | 0.00 | 91 | 1017.6 |
| 20260831050920 | 25 | 114 | 3.2 | 3.2 | 0.00 | 0.00 | 0.00 | 91 | 1017.6 |
| 20260831050420 | 25 | 121 | 3.2 | 3.2 | 0.00 | 0.00 | 0.00 | 90 | 1017.6 |
| 20260831050159 | 25 | 151 | 1.6 | 4.8 | 0.00 | 0.00 | 0.00 | 90 | 1017.6 |
| 20260831045920 | 25 | 124 | 1.6 | 1.6 | 0.00 | 0.00 | 0.00 | 89 | 1017.6 |
| 20260831045419 | 25 | 134 | 3.2 | 3.2 | 0.00 | 0.00 | 0.00 | 89 | 1017.6 |
| 20260831045156 | 25 | 143 | 4.8 | 4.8 | 0.00 | 0.00 | 0.00 | 89 | 1017.6 |
| 20260831044920 | 25 | 130 | 1.6 | 1.6 | 0.00 | 0.00 | 0.00 | 88 | 1017.6 |
| 20260831044420 | 25 | 126 | 1.6 | 3.2 | 0.00 | 0.00 | 0.00 | 87 | 1017.6 |
| 20260831044156 | 25 | 120 | 0.0 | 3.2 | 0.00 | 0.00 | 0.00 | 87 | 1017.7 |
| 20260831043919 | 25 | 128 | 1.6 | 4.8 | 0.00 | 0.00 | 0.00 | 87 | 1017.7 |
| 20260831043420 | 25 | 107 | 1.6 | 3.2 | 0.00 | 0.00 | 0.00 | 87 | 1017.7 |
| 20260831043158 | 25 | 102 | 3.2 | 3.2 | 0.00 | 0.00 | 0.00 | 87 | 1017.7 |
| 20260831042920 | 25 | 88 | 1.6 | 1.6 | 0.00 | 0.00 | 0.00 | 87 | 1017.7 |
| 20260831042420 | 25 | 95 | 1.6 | 4.8 | 0.00 | 0.00 | 0.00 | 87 | 1017.8 |
| 20260831042156 | 25 | 109 | 1.6 | 3.2 | 0.00 | 0.00 | 0.00 | 86 | 1017.8 |
| 20260831041921 | 25 | 100 | 1.6 | 1.6 | 0.00 | 0.00 | 0.00 | 86 | 1017.8 |
| 20260831041419 | 25 | 92 | 0.0 | 3.2 | 0.00 | 0.00 | 0.00 | 86 | 1017.8 |
| 20260831041157 | 25 | 103 | 1.6 | 4.8 | 0.00 | 0.00 | 0.00 | 86 | 1017.8 |
| 20260831040920 | 25 | 110 | 3.2 | 4.8 | 0.00 | 0.00 | 0.00 | 86 | 1017.8 |
| 20260831040420 | 25 | 92 | 3.2 | 3.2 | 0.00 | 0.00 | 0.00 | 86 | 1017.8 |
| 20260831040159 | 25 | 110 | 3.2 | 3.2 | 0.00 | 0.00 | 0.00 | 86 | 1017.8 |
| 20260831035920 | 25 | 109 | 4.8 | 4.8 | 0.00 | 0.00 | 0.00 | 86 | 1017.8 |
| 20260831035421 | 25 | 88 | 1.6 | 4.8 | 0.00 | 0.00 | 0.00 | 86 | 1017.9 |
| 20260831035156 | 25 | 83 | 1.6 | 4.8 | 0.00 | 0.00 | 0.00 | 86 | 1017.9 |
| 20260831034920 | 25 | 90 | 4.8 | 6.4 | 0.00 | 0.00 | 0.00 | 87 | 1017.9 |
| 20260831034420 | 25 | 65 | 3.2 | 4.8 | 0.00 | 0.00 | 0.00 | 87 | 1017.9 |
| 20260831034156 | 25 | 82 | 4.8 | 4.8 | 0.00 | 0.00 | 0.00 | 87 | 1017.9 |
| 20260831033921 | 25 | 85 | 3.2 | 4.8 | 0.00 | 0.00 | 0.00 | 87 | 1017.9 |
| 20260831033419 | 25 | 113 | 3.2 | 4.8 | 0.00 | 0.00 | 0.00 | 87 | 1017.9 |
| 20260831033157 | 25 | 97 | 3.2 | 3.2 | 0.00 | 0.00 | 0.00 | 87 | 1017.9 |
| 20260831032920 | 25 | 100 | 1.6 | 4.8 | 0.00 | 0.00 | 0.00 | 87 | 1017.9 |
| 20260831032421 | 25 | 99 | 1.6 | 3.2 | 0.00 | 0.00 | 0.00 | 87 | 1017.8 |
| 20260831032231 | 25 | 110 | 1.6 | 4.8 | 0.00 | 0.00 | 0.00 | 87 | 1017.8 |
| 20260831032156 | 25 | 110 | 1.6 | 4.8 | 0.00 | 0.00 | 0.00 | 87 | 1017.8 |
| 20260831031919 | 25 | 121 | 3.2 | 3.2 | 0.00 | 0.00 | 0.00 | 87 | 1017.8 |
| 20260831031420 | 25 | 96 | 1.6 | 3.2 | 0.00 | 0.00 | 0.00 | 87 | 1017.8 |
| 20260831031155 | 25 | 96 | 3.2 | 4.8 | 0.00 | 0.00 | 0.00 | 87 | 1017.9 |
| 20260831030919 | 25 | 120 | 1.6 | 4.8 | 0.00 | 0.00 | 0.00 | 87 | 1017.9 |
| 20260831030420 | 25 | 97 | 3.2 | 4.8 | 0.00 | 0.00 | 0.00 | 87 | 1017.9 |
| 20260831030155 | 25 | 102 | 3.2 | 4.8 | 0.00 | 0.00 | 0.00 | 87 | 1017.9 |
| 20260831025919 | 25 | 95 | 0.0 | 1.6 | 0.00 | 0.00 | 0.00 | 86 | 1017.9 |
| 20260831025419 | 25 | 119 | 3.2 | 3.2 | 0.00 | 0.00 | 0.00 | 86 | 1017.8 |
| 20260831025157 | 25 | 141 | 3.2 | 3.2 | 0.00 | 0.00 | 0.00 | 86 | 1017.8 |
| 20260831024920 | 25 | 131 | 0.0 | 3.2 | 0.00 | 0.00 | 0.00 | 86 | 1017.8 |
| 20260831024419 | 25 | 117 | 3.2 | 3.2 | 0.00 | 0.00 | 0.00 | 86 | 1017.8 |
| 20260831024156 | 25 | 114 | 3.2 | 4.8 | 0.00 | 0.00 | 0.00 | 86 | 1017.8 |
| 20260831023919 | 25 | 116 | 1.6 | 4.8 | 0.00 | 0.00 | 0.00 | 86 | 1017.8 |
| 20260831023420 | 25 | 102 | 1.6 | 4.8 | 0.00 | 0.00 | 0.00 | 86 | 1017.8 |
| 20260831023156 | 25 | 130 | 1.6 | 4.8 | 0.00 | 0.00 | 0.00 | 86 | 1017.8 |
| 20260831022919 | 25 | 120 | 1.6 | 3.2 | 0.00 | 0.00 | 0.00 | 86 | 1017.8 |
| 20260831022419 | 25 | 147 | 1.6 | 3.2 | 0.00 | 0.00 | 0.00 | 86 | 1017.6 |
| 20260831022158 | 26 | 127 | 0.0 | 4.8 | 0.00 | 0.00 | 0.00 | 86 | 1017.6 |
| 20260831021920 | 26 | 144 | 0.0 | 3.2 | 0.00 | 0.00 | 0.00 | 86 | 1017.6 |
| 20260831021310 | 26 | 133 | 3.2 | 3.2 | 0.00 | 0.00 | 0.00 | 86 | 1017.6 |
| 20260831020808 | 26 | 148 | 0.0 | 3.2 | 0.00 | 0.00 | 0.00 | 86 | 1017.6 |
| 20260831020309 | 26 | 117 | 4.8 | 4.8 | 0.00 | 0.00 | 0.00 | 86 | 1017.6 |
| 20260831015810 | 26 | 137 | 0.0 | 1.6 | 0.00 | 0.00 | 0.00 | 86 | 1017.5 |
| 20260831015308 | 26 | 158 | 3.2 | 3.2 | 0.00 | 0.00 | 0.00 | 86 | 1017.5 |
| 20260831014809 | 26 | 150 | 3.2 | 3.2 | 0.00 | 0.00 | 0.00 | 86 | 1017.5 |
| 20260831014310 | 26 | 119 | 0.0 | 3.2 | 0.00 | 0.00 | 0.00 | 86 | 1017.2 |
| 20260831013808 | 26 | 113 | 0.0 | 1.6 | 0.00 | 0.00 | 0.00 | 86 | 1017.2 |
| 20260831013310 | 26 | 148 | 0.0 | 1.6 | 0.00 | 0.00 | 0.00 | 85 | 1017.2 |
| 20260831012809 | 26 | 152 | 3.2 | 3.2 | 0.00 | 0.00 | 0.00 | 85 | 1017.0 |
| 20260831012309 | 26 | 130 | 1.6 | 3.2 | 0.00 | 0.00 | 0.00 | 84 | 1017.0 |
| 20260831011810 | 26 | 134 | 1.6 | 3.2 | 0.00 | 0.00 | 0.00 | 83 | 1017.0 |
| 20260831011310 | 26 | 154 | 3.2 | 3.2 | 0.00 | 0.00 | 0.00 | 83 | 1017.1 |
| 20260831010808 | 26 | 124 | 1.6 | 1.6 | 0.00 | 0.00 | 0.00 | 82 | 1017.1 |
| 20260831010309 | 27 | 151 | 3.2 | 3.2 | 0.00 | 0.00 | 0.00 | 82 | 1017.1 |
| 20260831005809 | 27 | 137 | 1.6 | 3.2 | 0.00 | 0.00 | 0.00 | 81 | 1017.1 |
| 20260831005310 | 27 | 86 | 1.6 | 3.2 | 0.00 | 0.00 | 0.00 | 81 | 1017.1 |
| 20260831004808 | 27 | 123 | 1.6 | 3.2 | 0.00 | 0.00 | 0.00 | 80 | 1017.1 |
| 20260831004309 | 27 | 121 | 1.6 | 1.6 | 0.00 | 0.00 | 0.00 | 80 | 1017.1 |
| 20260831003810 | 27 | 104 | 3.2 | 3.2 | 0.00 | 0.00 | 0.00 | 80 | 1017.1 |
| 20260831003308 | 27 | 106 | 4.8 | 4.8 | 0.00 | 0.00 | 0.00 | 80 | 1017.1 |
| 20260831002809 | 27 | 104 | 1.6 | 3.2 | 0.00 | 0.00 | 0.00 | 80 | 1017.1 |
| 20260831002310 | 27 | 97 | 1.6 | 3.2 | 0.00 | 0.00 | 0.00 | 80 | 1017.1 |
| 20260831001808 | 27 | 95 | 1.6 | 3.2 | 0.00 | 0.00 | 0.00 | 80 | 1017.1 |
| 20260831001309 | 27 | 88 | 3.2 | 3.2 | 0.00 | 0.00 | 0.00 | 79 | 1017.1 |
| 20260831000809 | 28 | 89 | 1.6 | 1.6 | 0.00 | 0.00 | 0.00 | 79 | 1017.1 |
| 20260831000310 | 28 | 96 | 3.2 | 3.2 | 0.00 | 0.00 | 0.00 | 78 | 1017.1 |
| 20260830235808 | 28 | 96 | 0.0 | 1.6 | 0.00 | 0.00 | 0.00 | 77 | 1017.1 |
| 20260830235308 | 28 | 96 | 3.2 | 3.2 | 0.00 | 0.00 | 0.00 | 76 | 1017.1 |
| 20260830234809 | 28 | 83 | 0.0 | 0.0 | 0.00 | 0.00 | 0.00 | 76 | 1017.1 |
| 20260830234309 | 28 | 97 | 3.2 | 4.8 | 0.00 | 0.00 | 0.00 | 76 | 1017.0 |
| 20260830233808 | 28 | 68 | 3.2 | 3.2 | 0.00 | 0.00 | 0.00 | 75 | 1017.0 |
| 20260830233309 | 28 | 93 | 3.2 | 4.8 | 0.00 | 0.00 | 0.00 | 75 | 1017.0 |
| 20260830232810 | 28 | 104 | 1.6 | 3.2 | 0.00 | 0.00 | 0.00 | 74 | 1016.9 |
| 20260830232308 | 28 | 56 | 1.6 | 3.2 | 0.00 | 0.00 | 0.00 | 74 | 1016.9 |
| 20260830231809 | 28 | 80 | 1.6 | 4.8 | 0.00 | 0.00 | 0.00 | 74 | 1016.9 |
| 20260830231310 | 29 | 96 | 3.2 | 3.2 | 0.00 | 0.00 | 0.00 | 74 | 1016.9 |
| 20260830230808 | 29 | 110 | 3.2 | 4.8 | 0.00 | 0.00 | 0.00 | 73 | 1016.9 |
| 20260830230308 | 29 | 79 | 1.6 | 6.4 | 0.00 | 0.00 | 0.00 | 74 | 1016.9 |
| 20260830225809 | 29 | 69 | 1.6 | 3.2 | 0.00 | 0.00 | 0.00 | 73 | 1017.0 |
| 20260830225309 | 29 | 165 | 1.6 | 3.2 | 0.00 | 0.00 | 0.00 | 72 | 1017.0 |
| 20260830224810 | 29 | 54 | 3.2 | 3.2 | 0.00 | 0.00 | 0.00 | 71 | 1017.0 |
| 20260830224309 | 29 | 90 | 1.6 | 4.8 | 0.00 | 0.00 | 0.00 | 71 | 1016.8 |
| 20260830223809 | 30 | 90 | 1.6 | 4.8 | 0.00 | 0.00 | 0.00 | 70 | 1016.8 |
| 20260830223309 | 30 | 58 | 3.2 | 4.8 | 0.00 | 0.00 | 0.00 | 70 | 1016.8 |
| 20260830222809 | 30 | 4 | 1.6 | 3.2 | 0.00 | 0.00 | 0.00 | 72 | 1016.9 |
| 20260830222309 | 30 | 80 | 0.0 | 3.2 | 0.00 | 0.00 | 0.00 | 72 | 1016.9 |
| 20260830221810 | 30 | 83 | 0.0 | 0.0 | 0.00 | 0.00 | 0.00 | 70 | 1016.9 |
| 20260830221308 | 30 | 114 | 0.0 | 3.2 | 0.00 | 0.00 | 0.00 | 69 | 1016.8 |
| 20260830220809 | 30 | 82 | 0.0 | 1.6 | 0.00 | 0.00 | 0.00 | 69 | 1016.8 |
| 20260830220310 | 30 | 141 | 3.2 | 4.8 | 0.00 | 0.00 | 0.00 | 68 | 1016.8 |
| 20260830215808 | 30 | 106 | 3.2 | 4.8 | 0.00 | 0.00 | 0.00 | 71 | 1017.0 |
| 20260830215310 | 30 | 82 | 1.6 | 4.8 | 0.00 | 0.00 | 0.00 | 66 | 1017.0 |
| 20260830214810 | 30 | 100 | 0.0 | 3.2 | 0.00 | 0.00 | 0.00 | 69 | 1017.0 |
| 20260830214308 | 30 | 127 | 0.0 | 1.6 | 0.00 | 0.00 | 0.00 | 69 | 1017.0 |
| 20260830213809 | 30 | 110 | 3.2 | 8.0 | 0.00 | 0.00 | 0.00 | 68 | 1017.0 |
| 20260830213310 | 30 | 42 | 3.2 | 3.2 | 0.00 | 0.00 | 0.00 | 67 | 1017.0 |
| 20260830212808 | 30 | 14 | 0.0 | 1.6 | 0.00 | 0.00 | 0.00 | 68 | 1017.1 |
| 20260830212309 | 30 | 66 | 3.2 | 8.0 | 0.00 | 0.00 | 0.00 | 69 | 1017.1 |
| 20260830211810 | 30 | 80 | 0.0 | 4.8 | 0.00 | 0.00 | 0.00 | 69 | 1017.1 |
| 20260830211308 | 30 | 86 | 0.0 | 3.2 | 0.00 | 0.00 | 0.00 | 67 | 1017.1 |
| 20260830210809 | 31 | 83 | 3.2 | 9.7 | 0.00 | 0.00 | 0.00 | 66 | 1017.1 |
| 20260830210310 | 31 | 79 | 1.6 | 4.8 | 0.00 | 0.00 | 0.00 | 65 | 1017.1 |
| 20260830205808 | 31 | 127 | 0.0 | 3.2 | 0.00 | 0.00 | 0.00 | 64 | 1017.3 |
| 20260830205309 | 31 | 17 | 1.6 | 1.6 | 0.00 | 0.00 | 0.00 | 64 | 1017.3 |
| 20260830204809 | 31 | 96 | 1.6 | 3.2 | 0.00 | 0.00 | 0.00 | 61 | 1017.3 |
| 20260830204308 | 31 | 88 | 6.4 | 8.0 | 0.00 | 0.00 | 0.00 | 64 | 1017.5 |
| 20260830203810 | 31 | 134 | 8.0 | 9.7 | 0.00 | 0.00 | 0.00 | 64 | 1017.5 |
| 20260830203309 | 31 | 335 | 0.0 | 0.0 | 0.00 | 0.00 | 0.00 | 66 | 1017.5 |
| 20260830202808 | 31 | 171 | 1.6 | 1.6 | 0.00 | 0.00 | 0.00 | 65 | 1017.7 |
| 20260830202309 | 30 | 121 | 1.6 | 3.2 | 0.00 | 0.00 | 0.00 | 67 | 1017.7 |
| 20260830201809 | 30 | 116 | 1.6 | 4.8 | 0.00 | 0.00 | 0.00 | 67 | 1017.7 |
| 20260830201308 | 30 | 48 | 3.2 | 3.2 | 0.00 | 0.00 | 0.00 | 67 | 1017.8 |
| 20260830200809 | 30 | 66 | 4.8 | 4.8 | 0.00 | 0.00 | 0.00 | 68 | 1017.8 |
| 20260830200309 | 30 | 169 | 1.6 | 8.0 | 0.00 | 0.00 | 0.00 | 68 | 1017.8 |
| 20260830195808 | 30 | 138 | 1.6 | 3.2 | 0.00 | 0.00 | 0.00 | 68 | 1017.9 |
| 20260830195309 | 30 | 150 | 1.6 | 6.4 | 0.00 | 0.00 | 0.00 | 65 | 1017.9 |
| 20260830194809 | 30 | 45 | 4.8 | 9.7 | 0.00 | 0.00 | 0.00 | 67 | 1017.9 |
| 20260830194308 | 30 | 112 | 4.8 | 4.8 | 0.00 | 0.00 | 0.00 | 67 | 1018.0 |
| 20260830193810 | 30 | 40 | 4.8 | 8.0 | 0.00 | 0.00 | 0.00 | 67 | 1018.0 |
| 20260830193309 | 30 | 86 | 3.2 | 6.4 | 0.00 | 0.00 | 0.00 | 68 | 1018.0 |
| 20260830192808 | 30 | 121 | 3.2 | 3.2 | 0.00 | 0.00 | 0.00 | 69 | 1018.1 |
| 20260830192309 | 30 | 141 | 9.7 | 9.7 | 0.00 | 0.00 | 0.00 | 69 | 1018.1 |
| 20260830191809 | 30 | 120 | 9.7 | 9.7 | 0.00 | 0.00 | 0.00 | 69 | 1018.1 |
| 20260830191308 | 30 | 176 | 1.6 | 3.2 | 0.00 | 0.00 | 0.00 | 69 | 1018.4 |
| 20260830190809 | 30 | 150 | 6.4 | 9.7 | 0.00 | 0.00 | 0.00 | 71 | 1018.4 |
| 20260830190310 | 30 | 119 | 3.2 | 3.2 | 0.00 | 0.00 | 0.00 | 70 | 1018.4 |
| 20260830185808 | 30 | 119 | 8.0 | 9.7 | 0.00 | 0.00 | 0.00 | 70 | 1018.6 |
| 20260830185309 | 30 | 186 | 0.0 | 1.6 | 0.00 | 0.00 | 0.00 | 70 | 1018.6 |
| 20260830184809 | 30 | 148 | 3.2 | 6.4 | 0.00 | 0.00 | 0.00 | 75 | 1018.6 |
| 20260830184308 | 30 | 55 | 1.6 | 4.8 | 0.00 | 0.00 | 0.00 | 72 | 1018.8 |
| 20260830183809 | 30 | 167 | 1.6 | 6.4 | 0.00 | 0.00 | 0.00 | 71 | 1018.8 |
| 20260830183309 | 30 | 145 | 4.8 | 4.8 | 0.00 | 0.00 | 0.00 | 71 | 1018.8 |
| 20260830182809 | 30 | 104 | 6.4 | 6.4 | 0.00 | 0.00 | 0.00 | 73 | 1019.0 |
| 20260830182309 | 29 | 178 | 3.2 | 3.2 | 0.00 | 0.00 | 0.00 | 72 | 1019.0 |
| 20260830181808 | 30 | 253 | 0.0 | 1.6 | 0.00 | 0.00 | 0.00 | 74 | 1019.0 |
| 20260830181309 | 30 | 215 | 1.6 | 1.6 | 0.00 | 0.00 | 0.00 | 74 | 1019.1 |
| 20260830180809 | 30 | 27 | 0.0 | 1.6 | 0.00 | 0.00 | 0.00 | 73 | 1019.1 |
| 20260830180308 | 30 | 68 | 0.0 | 1.6 | 0.00 | 0.00 | 0.00 | 74 | 1019.1 |
| 20260830175714 | 29 | 102 | 1.6 | 1.6 | 0.00 | 0.00 | 0.00 | 76 | 1019.5 |
| 20260830175214 | 29 | 71 | 4.8 | 6.4 | 0.00 | 0.00 | 0.00 | 72 | 1019.5 |
| 20260830174713 | 28 | 114 | 4.8 | 6.4 | 0.00 | 0.00 | 0.00 | 76 | 1019.5 |
| 20260830174214 | 28 | 49 | 0.0 | 0.0 | 0.00 | 0.00 | 0.00 | 79 | 1019.7 |
| 20260830173714 | 28 | 116 | 3.2 | 4.8 | 0.00 | 0.00 | 0.00 | 77 | 1019.7 |
| 20260830173213 | 28 | 113 | 1.6 | 4.8 | 0.00 | 0.00 | 0.00 | 76 | 1019.7 |
| 20260830172713 | 28 | 109 | 1.6 | 4.8 | 0.00 | 0.00 | 0.00 | 75 | 1019.9 |
| 20260830172213 | 28 | 49 | 3.2 | 9.7 | 0.00 | 0.00 | 0.00 | 76 | 1019.9 |
| 20260830171714 | 28 | 106 | 4.8 | 4.8 | 0.00 | 0.00 | 0.00 | 78 | 1019.9 |
| 20260830171213 | 28 | 58 | 0.0 | 0.0 | 0.00 | 0.00 | 0.00 | 76 | 1019.8 |
| 20260830170713 | 28 | 69 | 3.2 | 4.8 | 0.00 | 0.00 | 0.00 | 77 | 1019.8 |
| 20260830170214 | 28 | 123 | 6.4 | 6.4 | 0.00 | 0.00 | 0.00 | 77 | 1019.8 |
| 20260830165714 | 28 | 65 | 3.2 | 4.8 | 0.00 | 0.00 | 0.00 | 76 | 1020.0 |
| 20260830165214 | 28 | 95 | 8.0 | 9.7 | 0.00 | 0.00 | 0.00 | 75 | 1020.0 |
| 20260830164713 | 28 | 52 | 1.6 | 14.5 | 0.00 | 0.00 | 0.00 | 77 | 1020.0 |
| 20260830164214 | 28 | 239 | 0.0 | 3.2 | 0.00 | 0.00 | 0.00 | 78 | 1020.1 |
| 20260830163714 | 28 | 147 | 3.2 | 8.0 | 0.00 | 0.00 | 0.00 | 78 | 1020.1 |
| 20260830163213 | 28 | 88 | 3.2 | 11.3 | 0.00 | 0.00 | 0.00 | 78 | 1020.1 |
| 20260830162621 | 28 | 230 | 0.0 | 1.6 | 0.00 | 0.00 | 0.00 | 79 | 1020.2 |
| 20260830162122 | 28 | 112 | 4.8 | 6.4 | 0.00 | 0.00 | 0.00 | 80 | 1020.2 |
| 20260830161621 | 28 | 104 | 8.0 | 8.0 | 0.00 | 0.00 | 0.00 | 80 | 1020.2 |
| 20260830161122 | 28 | 282 | 0.0 | 1.6 | 0.00 | 0.00 | 0.00 | 80 | 1020.3 |
| 20260830160621 | 28 | 171 | 1.6 | 1.6 | 0.00 | 0.00 | 0.00 | 79 | 1020.3 |
| 20260830160121 | 27 | 128 | 4.8 | 4.8 | 0.00 | 0.00 | 0.00 | 79 | 1020.3 |
| 20260830155622 | 27 | 210 | 1.6 | 6.4 | 0.00 | 0.00 | 0.00 | 82 | 1020.4 |
| 20260830155121 | 27 | 130 | 4.8 | 8.0 | 0.00 | 0.00 | 0.00 | 81 | 1020.4 |
| 20260830154620 | 27 | 124 | 6.4 | 8.0 | 0.00 | 0.00 | 0.00 | 85 | 1020.4 |
| 20260830154121 | 27 | 90 | 1.6 | 4.8 | 0.00 | 0.00 | 0.00 | 87 | 1020.4 |
| 20260830153621 | 27 | 90 | 4.8 | 6.4 | 0.00 | 0.00 | 0.00 | 86 | 1020.4 |
| 20260830153121 | 27 | 189 | 4.8 | 4.8 | 0.00 | 0.00 | 0.00 | 86 | 1020.4 |
| 20260830152622 | 27 | 193 | 1.6 | 1.6 | 0.00 | 0.00 | 0.00 | 86 | 1020.6 |
| 20260830152121 | 27 | 172 | 0.0 | 4.8 | 0.00 | 0.00 | 0.00 | 86 | 1020.6 |
| 20260830151621 | 27 | 195 | 1.6 | 9.7 | 0.00 | 0.00 | 0.00 | 85 | 1020.6 |
| 20260830151122 | 27 | 130 | 4.8 | 4.8 | 0.00 | 0.00 | 0.00 | 84 | 1020.4 |
| 20260830150621 | 27 | 147 | 9.7 | 9.7 | 0.00 | 0.00 | 0.00 | 84 | 1020.4 |
| 20260830150120 | 27 | 202 | 3.2 | 3.2 | 0.00 | 0.00 | 0.00 | 84 | 1020.4 |
| 20260830145621 | 27 | 136 | 0.0 | 8.0 | 0.00 | 0.00 | 0.00 | 85 | 1020.3 |
| 20260830145121 | 27 | 140 | 3.2 | 8.0 | 0.00 | 0.00 | 0.00 | 84 | 1020.3 |
| 20260830144620 | 27 | 148 | 4.8 | 6.4 | 0.00 | 0.00 | 0.00 | 86 | 1020.3 |
| 20260830144121 | 27 | 113 | 0.0 | 0.0 | 0.00 | 0.00 | 0.00 | 85 | 1020.4 |
| 20260830143621 | 27 | 161 | 0.0 | 0.0 | 0.00 | 0.00 | 0.00 | 85 | 1020.4 |
| 20260830143120 | 27 | 171 | 0.0 | 3.2 | 0.00 | 0.00 | 0.00 | 85 | 1020.4 |
| 20260830142622 | 27 | 157 | 0.0 | 4.8 | 0.00 | 0.00 | 0.00 | 85 | 1020.4 |
| 20260830142121 | 27 | 133 | 3.2 | 4.8 | 0.00 | 0.00 | 0.00 | 86 | 1020.4 |
| 20260830141620 | 26 | 113 | 3.2 | 4.8 | 0.00 | 0.00 | 0.00 | 88 | 1020.4 |
| 20260830141121 | 26 | 195 | 0.0 | 0.0 | 0.00 | 0.00 | 0.00 | 88 | 1020.4 |
| 20260830140621 | 26 | 205 | 0.0 | 0.0 | 0.00 | 0.00 | 0.00 | 90 | 1020.4 |
| 20260830140120 | 26 | 223 | 0.0 | 0.0 | 0.00 | 0.00 | 0.00 | 91 | 1020.4 |
| 20260830135621 | 26 | 263 | 0.0 | 1.6 | 0.00 | 0.00 | 0.00 | 92 | 1020.3 |
| 20260830135121 | 26 | 123 | 0.0 | 0.0 | 0.00 | 0.00 | 0.00 | 93 | 1020.3 |
| 20260830134620 | 25 | 133 | 0.0 | 4.8 | 0.00 | 0.03 | 0.00 | 95 | 1020.3 |
| 20260830134122 | 25 | 130 | 1.6 | 1.6 | 0.00 | 0.03 | 0.00 | 97 | 1020.3 |
| 20260830133621 | 25 | 179 | 4.8 | 4.8 | 0.00 | 0.03 | 0.00 | 98 | 1020.3 |
| 20260830133120 | 24 | 185 | 0.0 | 6.4 | 0.00 | 0.03 | 0.00 | 99 | 1020.3 |
| 20260830132621 | 24 | 241 | 0.0 | 0.0 | 0.00 | 0.03 | 0.00 | 100 | 1020.2 |
| 20260830132121 | 24 | 184 | 0.0 | 3.2 | 0.00 | 0.03 | 0.00 | 100 | 1020.2 |
| 20260830131620 | 23 | 268 | 0.0 | 1.6 | 0.00 | 0.03 | 0.00 | 100 | 1020.2 |
| 20260830131121 | 23 | 186 | 1.6 | 4.8 | 0.00 | 0.03 | 0.00 | 100 | 1020.0 |
| 20260830130621 | 23 | 120 | 1.6 | 3.2 | 0.00 | 0.03 | 0.00 | 100 | 1020.0 |
| 20260830130120 | 23 | 164 | 0.0 | 3.2 | 0.00 | 0.03 | 0.00 | 100 | 1020.0 |
| 20260830125622 | 23 | 141 | 3.2 | 8.0 | 0.00 | 0.03 | 0.00 | 100 | 1019.8 |
| 20260830125120 | 23 | 130 | 1.6 | 3.2 | 0.00 | 0.03 | 0.00 | 100 | 1019.8 |
| 20260830124621 | 23 | 140 | 4.8 | 8.0 | 0.00 | 0.03 | 0.00 | 100 | 1019.8 |
| 20260830124122 | 22 | 143 | 4.8 | 4.8 | 0.00 | 0.03 | 0.00 | 100 | 1019.8 |
| 20260830123620 | 22 | 124 | 0.0 | 1.6 | 0.00 | 0.03 | 0.00 | 100 | 1019.8 |
| 20260830123121 | 22 | 140 | 4.8 | 4.8 | 0.00 | 0.03 | 0.00 | 100 | 1019.8 |
| 20260830122622 | 22 | 120 | 3.2 | 6.4 | 0.00 | 0.03 | 0.00 | 100 | 1019.8 |
| 20260830122121 | 22 | 126 | 1.6 | 4.8 | 0.00 | 0.03 | 0.00 | 100 | 1019.8 |
| 20260830121620 | 22 | 137 | 1.6 | 1.6 | 0.00 | 0.03 | 0.00 | 100 | 1019.8 |
| 20260830121121 | 22 | 124 | 0.0 | 4.8 | 0.00 | 0.03 | 0.00 | 100 | 1019.7 |
| 20260830120621 | 22 | 130 | 0.0 | 4.8 | 0.00 | 0.03 | 0.00 | 100 | 1019.7 |
| 20260830120121 | 22 | 131 | 3.2 | 3.2 | 0.00 | 0.03 | 0.00 | 100 | 1019.7 |
| 20260830115621 | 22 | 144 | 1.6 | 3.2 | 0.00 | 0.03 | 0.00 | 100 | 1019.7 |
| 20260830115120 | 22 | 120 | 1.6 | 3.2 | 0.00 | 0.03 | 0.00 | 100 | 1019.7 |
| 20260830114621 | 22 | 110 | 1.6 | 3.2 | 0.00 | 0.03 | 0.00 | 100 | 1019.7 |
| 20260830114121 | 22 | 103 | 3.2 | 3.2 | 0.00 | 0.03 | 0.00 | 100 | 1019.5 |
| 20260830113620 | 22 | 124 | 4.8 | 6.4 | 0.00 | 0.03 | 0.00 | 100 | 1019.5 |
| 20260830113121 | 22 | 93 | 0.0 | 1.6 | 0.00 | 0.03 | 0.00 | 100 | 1019.5 |
| 20260830112621 | 22 | 73 | 3.2 | 3.2 | 0.00 | 0.03 | 0.00 | 100 | 1019.4 |
| 20260830112121 | 22 | 120 | 0.0 | 3.2 | 0.00 | 0.03 | 0.00 | 100 | 1019.4 |
| 20260830111622 | 22 | 113 | 1.6 | 3.2 | 0.00 | 0.03 | 0.00 | 100 | 1019.4 |
| 20260830111120 | 22 | 116 | 1.6 | 6.4 | 0.00 | 0.03 | 0.00 | 100 | 1019.1 |
| 20260830110621 | 22 | 104 | 3.2 | 3.2 | 0.00 | 0.03 | 0.00 | 100 | 1019.1 |
| 20260830110122 | 22 | 119 | 1.6 | 4.8 | 0.00 | 0.03 | 0.00 | 100 | 1019.1 |
| 20260830105620 | 22 | 116 | 0.0 | 3.2 | 0.00 | 0.03 | 0.00 | 100 | 1018.9 |
| 20260830105121 | 22 | 119 | 1.6 | 1.6 | 0.00 | 0.03 | 0.00 | 100 | 1018.9 |
| 20260830104620 | 22 | 121 | 0.0 | 0.0 | 0.00 | 0.03 | 0.00 | 100 | 1018.9 |
| 20260830104120 | 22 | 119 | 0.0 | 0.0 | 0.00 | 0.03 | 0.00 | 100 | 1018.7 |
| 20260830103621 | 22 | 123 | 0.0 | 0.0 | 0.00 | 0.03 | 0.00 | 100 | 1018.7 |
| 20260830103121 | 22 | 136 | 3.2 | 3.2 | 0.00 | 0.03 | 0.00 | 100 | 1018.7 |
| 20260830102621 | 22 | 150 | 0.0 | 1.6 | 0.00 | 0.03 | 0.00 | 100 | 1018.6 |
| 20260830102120 | 22 | 124 | 1.6 | 1.6 | 0.00 | 0.03 | 0.00 | 100 | 1018.6 |
| 20260830101621 | 22 | 124 | 0.0 | 3.2 | 0.00 | 0.03 | 0.00 | 100 | 1018.6 |
| 20260830101122 | 22 | 140 | 3.2 | 3.2 | 0.00 | 0.03 | 0.00 | 100 | 1018.4 |
| 20260830100620 | 22 | 158 | 0.0 | 0.0 | 0.00 | 0.03 | 0.00 | 100 | 1018.4 |
| 20260830100120 | 22 | 154 | 0.0 | 1.6 | 0.00 | 0.03 | 0.00 | 100 | 1018.4 |
| 20260830095622 | 22 | 145 | 0.0 | 3.2 | 0.00 | 0.03 | 0.00 | 100 | 1018.2 |
| 20260830095120 | 22 | 154 | 0.0 | 0.0 | 0.00 | 0.03 | 0.00 | 100 | 1018.2 |
| 20260830094621 | 22 | 151 | 0.0 | 0.0 | 0.00 | 0.03 | 0.00 | 100 | 1018.2 |
| 20260830094122 | 22 | 148 | 1.6 | 1.6 | 0.00 | 0.03 | 0.00 | 100 | 1018.1 |
| 20260830093620 | 22 | 150 | 1.6 | 1.6 | 0.00 | 0.03 | 0.00 | 100 | 1018.1 |
| 20260830093121 | 22 | 150 | 1.6 | 3.2 | 0.00 | 0.03 | 0.00 | 100 | 1018.1 |
| 20260830092622 | 22 | 140 | 0.0 | 1.6 | 0.00 | 0.03 | 0.00 | 100 | 1018.2 |
| 20260830092121 | 22 | 141 | 1.6 | 3.2 | 0.00 | 0.03 | 0.00 | 100 | 1018.2 |
| 20260830091620 | 22 | 157 | 3.2 | 3.2 | 0.00 | 0.03 | 0.00 | 100 | 1018.2 |
| 20260830091121 | 22 | 150 | 1.6 | 3.2 | 0.00 | 0.03 | 0.00 | 100 | 1018.1 |
| 20260830090621 | 22 | 120 | 1.6 | 1.6 | 0.00 | 0.03 | 0.00 | 100 | 1018.1 |
| 20260830090120 | 22 | 140 | 1.6 | 1.6 | 0.00 | 0.03 | 0.00 | 100 | 1018.1 |
| 20260830085928 | 22 | 169 | 0.0 | 0.0 | 0.00 | 0.03 | 0.00 | 100 | 1018.1 |
| 20260830085429 | 22 | 138 | 0.0 | 0.0 | 0.00 | 0.03 | 0.00 | 100 | 1018.0 |
| 20260830084929 | 23 | 161 | 0.0 | 0.0 | 0.00 | 0.03 | 0.00 | 100 | 1018.0 |
| 20260830084428 | 23 | 169 | 0.0 | 1.6 | 0.00 | 0.03 | 0.00 | 100 | 1018.0 |
| 20260830083929 | 23 | 151 | 0.0 | 0.0 | 0.00 | 0.03 | 0.00 | 100 | 1017.9 |
| 20260830083430 | 23 | 152 | 0.0 | 3.2 | 0.00 | 0.03 | 0.00 | 100 | 1017.9 |
| 20260830082928 | 23 | 158 | 1.6 | 3.2 | 0.00 | 0.03 | 0.00 | 100 | 1017.9 |
| 20260830082429 | 23 | 136 | 1.6 | 3.2 | 0.00 | 0.03 | 0.00 | 100 | 1017.9 |
| 20260830081930 | 23 | 147 | 0.0 | 1.6 | 0.00 | 0.03 | 0.00 | 100 | 1017.9 |
| 20260830081429 | 23 | 154 | 3.2 | 3.2 | 0.00 | 0.03 | 0.00 | 100 | 1017.9 |
| 20260830080928 | 23 | 158 | 0.0 | 3.2 | 0.00 | 0.03 | 0.00 | 100 | 1017.7 |
| 20260830080429 | 23 | 164 | 0.0 | 0.0 | 0.00 | 0.03 | 0.00 | 100 | 1017.7 |
| 20260830075929 | 23 | 138 | 0.0 | 3.2 | 0.00 | 0.03 | 0.00 | 100 | 1017.7 |
| 20260830075428 | 23 | 157 | 1.6 | 1.6 | 0.00 | 0.03 | 0.00 | 100 | 1017.7 |
| 20260830074929 | 23 | 161 | 1.6 | 3.2 | 0.00 | 0.03 | 0.00 | 100 | 1017.7 |
| 20260830074429 | 23 | 130 | 0.0 | 0.0 | 0.00 | 0.03 | 0.00 | 100 | 1017.7 |
| 20260830073928 | 23 | 145 | 1.6 | 1.6 | 0.00 | 0.03 | 0.00 | 100 | 1017.8 |
| 20260830073429 | 23 | 130 | 3.2 | 3.2 | 0.00 | 0.03 | 0.00 | 100 | 1017.8 |
| 20260830072929 | 23 | 151 | 1.6 | 3.2 | 0.00 | 0.03 | 0.00 | 100 | 1017.8 |